Location: Kuppenheim
(48.8299°N, 8.2568°E)
Time: 15:48:17
(UTC+00:00)

CZ-3B R/B - Pass Details

Date: 20 June 2021
Orbit: 338 x 17331 km, 54.9° (Epoch: 31 July)

Event Time Altitude Azimuth Distance (km) Brightness Sun altitude
Rises 00:39:07 0° 281° (W) 8,228 7.7 -16.0°
Reaches altitude 10° 00:47:03 10° 287° (WNW) 5,056 6.7 -15.6°
Maximum altitude 00:56:47 49° 1° (N) 1,048 3.6 -15.1°
Drops below altitude 10° 01:00:01 10° 79° (E) 1,706 4.8 -14.9°
Sets 01:01:25 0° 87° (E) 2,348 5.4 -14.8°
